Torna al catalogo

STARLINK-30588

AttivoComunicazioniVLEO
NORAD 58062·PAYLOAD·🇺🇸 United States

Lanciato Oct 13, 2023 da Cape Canaveral Space Force Station

Loading…

Prossimi Passaggi (prossime 24 ore)

TLE

AggiornatoSource: CelesTrak SupGP

Epoca: Sep 14, 2026, 13:52 UTC

1 58062C 23158M   26257.57826389 -.00043079  00000+0 -15607-2 0  2572
2 58062  43.0009  40.2758 0001468 267.1629 262.9445 15.27592662    15

Traccia STARLINK-30588 in tempo reale con AllMySat

Download on the App Store